Location: Tierra del Sol
(32.6128°N, 116.3319°W)
Time: 06:27:22
(UTC-07:00)

Vanguard 2 - Pass Details

Date: 28 April 2018
Orbit: 553 x 2939 km, 32.9° (Epoch: 26 May)

Event Time Altitude Azimuth Distance (km) Brightness Sun altitude
Rises 18:50:35 0° 224° (SW) 6,775 12.8 6.1°
Reaches altitude 10° 18:55:34 10° 218° (SW) 5,673 12.3 5.1°
Maximum altitude 19:11:01 46° 153° (SSE) 2,913 10.2 1.9°
Drops below altitude 10° 19:21:41 10° 85° (E) 4,011 10.6 -0.2°
Sets 19:24:32 0° 79° (ENE) 4,711 11.0 -0.8°
